User: anonymous   Login
Location: Lombard
(41.8800°N, 88.0080°W)
Time: 06:43:07
(UTC-05:00)
Language:

BEESAT - Orbit

View from above orbital plane
View from above orbital plane
View from above satellite
View from above satellite

Ground track
Ground track

The orbit data is extracted from the following two-line orbital elements,

1 35933U 09051C   22142.16392666  .00000975  00000-0  22850-3 0  9999
2 35933  98.5657 359.0123 0006570 132.1395 228.0362 14.56850659672423
Epoch (UTC): 22 May 2022 03:56:03
Eccentricity: 0.0006570
inclination: 98.5657°
perigee height: 699 km
apogee height: 708 km
right ascension of ascending node: 359.0123°
argument of perigee: 132.1395°
revolutions per day: 14.56850659
mean anomaly at epoch: 228.0362°
orbit number at epoch: 67242

The dashed part of the orbit path shows where the satellite is in the earth's shadow,  

DLR